SCP
0 0 0 -0 0 0 0 0 0 -0 -0 -0 -0 -0 -0 -0 -0 -0 -0 -0 -0 -0 -0 -0 -0 -0 -0 -0 -0 -0 -0 -0 -0 -0 -0 -0 -0 -0 -0 0 0 -0 -0
-0 0 0 0 -0 -0 0 0 0 0 -0 -0 -0 -0 -0 -0 -0 -0 -0 -0 -0 -0 -0 -0 -0 -0 -0 -0 -0 -0 -0 -0 -0 -0 -0 -0 -0 -0 -0 -0 -0 -0 -0
-0 0 0 0 -0 -0 0 0 0 0 0 -0 -0 -0 -0 -0 -0 -0 -0 -0 -0 -0 -0 -0 -0 -0 -0 -0 -0 -0 -0 -0 -0 0 0 0 0 -0 -0 -0 -0 -0 -0
-0 0 0 -0 -0 -0 0 -0 0 0 0 -0 -0 -0 -0 -0 -0 -0 -0 -0 -0 -0 -0 -0 -0 -0 -0 -0 -0 -0 -0 -0 0 0 -0 -0 -0 -0 -0 -0 -0 -0 -0
-0 0 -0 -0 0 -0 -0 0 -0 0 0 -0 -0 -0 -0 -0 -0 -0 -0 -0 -0 -0 -0 -0 -0 -0 -0 -0 -0 -0 -0 -0 -0 -0 -0 -0 0 -0 -0 -0 -0 -0 -0
0 0 0 0 0 -0 -0 -0 -0 0 -0 -0 -0 -0 -0 -0 -0 -0 -0 -0 -0 -0 -0 -0 -0 -0 -0 -0 -0 -0 -0 -0 -0 -0 -0 0 0 -0 -0 -0 -0 -0 -0
0 -0 0 -0 -0 -0 -0 -0 -0 -0 -0 0 -0 -0 -0 -0 -0 -0 -0 -0 -0 -0 -0 -0 -0 -0 -0 -0 -0 -0 -0 0 0 0 0 0 0 -0 -0 -0 -0 -0 -0
0 0 -0 -0 -0 -0 -0 0 0 0 0 0 -0 -0 -0 -0 -0 -0 -0 -0 -0 -0 -0 -0 -0 -0 -0 -0 -0 -0 0 0 0 0 0 0 0 0 0 -0 -0 0 0
-0 -0 -0 -0 0 0 0 0 0 0 -0 -0 -0 -0 -0 -0 -0 -0 -0 -0 -0 -0 -0 -0 -0 0 0 -0 -0 -0 0 0 0 0 0 0 0 0 0 0 0 0 0
-0 -0 -0 -0 -0 -0 -0 -0 -0 -0 -0 -0 -0 -0 -0 -0 -0 0 0 0 0 -0 -0 -0 -0 -0 0 -0 -0 0 0 0 0 0 0 0 0 0 0 0 0 0 0
-0 -0 -0 -0 -0 -0 -0 -0 -0 -0 -0 -0 -0 -0 -0 -0 -0 -0 0 0 0 -0 -0 -0 0 0 0 0 0 0 0 0 0 0 0 0 0 0 0 0 0 0 0
-0 -0 -0 -0 -0 -0 -0 -0 -0 -0 -0 -0 -0 -0 0 0 0 0 0 0 0 0 0 0 0 0 0 0 0 0 0 0 0 0 0 0 0 0 0 0 0 0 0
-0 -0 -0 -0 -0 -0 -0 -0 0 0 0 0 -0 0 0 0 0 0 0 0 0 0 0 0 0 0 0 0 0 0 0 0 0 0 0 0 0 0 0 0 0 0 0
-0 -0 -0 -0 -0 -0 0 0 -0 -0 -0 -0 -0 -0 0 0 0 0 0 0 0 0 0 0 0 0 0 0 0 0 0 0 0 0 0 0 0 0 0 0 0 0 0
-0 -0 -0 -0 -0 -0 -0 0 0 -0 -0 -0 -0 -0 0 0 0 0 0 0 0 0 0 0 0 0 0 0 0 0 0 0 0 0 0 0 0 0 0 0 0 0 0
-0 -0 -0 -0 -0 -0 -0 -0 0 0 -0 -0 0 -0 -0 0 0 0 0 0 0 0 0 0 0 0 0 0 0 0 0 0 0 0 0 0 0 0 0 0 0 0 0
-0 -0 -0 -0 -0 -0 -0 -0 0 0 0 0 0 -0 -0 0 -0 0 0 0 0 0 0 0 0 0 0 0 0 0 0 0 0 0 0 0 0 0 0 0 0 0 0
0 0 -0 0 -0 -0 -0 0 0 0 0 0 0 0 -0 0 0 0 0 0 0 0 0 0 0 0 0 0 0 0 0 0 0 0 0 0 0 0 0 0 0 0 0
0 0 0 0 0 -0 0 0 0 0 0 0 0 0 0 0 0 0 0 0 0 0 0 0 0 0 0 0 0 0 0 0 0 0 0 0 0 0 0 0 0 0 0
0 0 0 0 0 0 0 0 0 0 0 0 0 0 0 0 0 0 0 0 0 0 0 0 0 0 0 0 0 0 0 0 0 0 0 0 0 0 0 0 0 0 0
0 0 0 0 0 0 0 0 0 0 0 0 0 0 0 0 0 0 0 0 0 0 0 0 0 0 0 0 0 0 0 0 0 0 0 0 0 0 0 0 0 0 0
0 0 0 0 0 0 0 0 0 0 0 0 0 0 0 0 0 0 0 0 0 0 0 0 0 0 0 0 0 0 0 0 0 0 0 0 0 0 0 0 0 0 0
0 0 0 0 0 0 0 0 0 0 0 0 0 0 0 0 0 0 0 0 0 0 0 0 0 0 0 0 0 0 0 0 0 0 0 0 0 0 0 0 0 0 0
0 0 0 0 0 0 0 0 0 0 0 0 0 0 0 0 0 0 0 0 0 0 0 0 0 0 0 0 0 0 0 0 0 0 0 0 0 0 0 0 0 0 0
0 0 0 0 0 0 0 0 0 0 0 0 0 0 0 0 0 0 0 0 0 0 0 0 0 0 0 0 0 0 0 0 0 0 0 0 0 0 0 0 0 0 0
0 0 0 0 0 0 0 0 0 0 0 0 0 0 0 0 0 0 0 0 0 0 0 0 0 0 0 0 0 0 0 0 0 0 0 0 0 0 0 0 0 0 0
Wind_Speed_500mb
41 37 30 25 21 19 20 19 19 19 20 18 17 18 20 22 22 26 30 31 28 28 26 24 22 22 23 22 26 30 32 35 35 36 38 36 35 33 32 34 35 37 36
44 36 31 23 21 16 17 19 22 19 19 18 18 21 20 24 22 25 31 32 28 31 27 24 22 19 18 21 26 24 22 28 30 31 29 26 27 24 25 27 26 24 30
43 41 34 25 16 14 18 18 20 20 23 21 19 18 19 23 24 26 31 30 32 26 27 24 22 21 22 21 22 15 15 22 25 23 29 28 23 21 22 23 22 21 19
41 35 27 25 19 15 23 22 20 20 24 22 15 14 21 23 25 26 31 31 28 26 29 28 27 26 25 25 25 24 28 32 33 39 30 32 33 26 20 22 21 18 14
41 36 26 25 21 18 21 22 21 22 26 23 14 11 20 24 23 23 26 30 27 28 28 27 28 28 25 26 26 28 32 36 35 33 30 26 24 19 19 21 23 24 25
40 33 30 24 20 20 20 19 19 19 23 23 12 9 19 20 19 18 18 21 25 26 24 24 28 24 27 30 34 35 36 30 29 30 26 24 19 11 12 18 19 14 9
43 35 30 25 21 19 18 17 17 18 20 23 15 7 13 15 16 13 15 19 23 21 24 25 25 24 25 28 31 30 32 28 27 25 20 19 19 14 11 9 8 7 12
43 35 29 25 20 17 16 16 15 15 16 17 12 7 10 12 13 12 12 14 21 19 23 24 21 19 22 24 25 29 28 26 23 21 16 13 8 8 3 6 3 15 17
41 37 33 28 25 21 18 16 16 15 14 12 10 9 9 10 12 10 10 12 17 24 19 15 15 18 20 23 24 21 20 16 16 15 16 13 15 11 6 7 12 14 11
42 39 35 33 30 27 23 21 18 15 12 10 9 7 7 7 8 8 8 10 9 16 14 12 11 15 16 18 15 15 13 9 11 12 12 13 12 11 3 8 7 6 10
45 42 39 36 33 29 26 23 20 18 15 13 11 8 6 5 7 7 9 10 9 12 15 13 11 11 11 10 9 9 10 8 6 9 10 11 10 7 1 8 5 9 10
54 49 43 39 37 34 30 27 24 21 18 16 13 11 9 8 8 8 8 9 8 11 13 13 12 10 9 6 4 4 4 4 7 9 6 9 15 19 4 5 8 10 7
57 53 48 44 41 39 36 33 30 26 23 21 19 15 11 9 8 8 10 10 10 10 10 12 11 9 6 3 2 2 2 4 3 6 6 9 17 19 10 2 8 6 4
58 55 51 48 47 44 41 38 34 31 28 26 22 19 15 12 12 10 11 10 10 10 10 11 10 7 4 3 3 4 5 4 3 4 8 9 17 20 18 3 2 1 3
55 54 50 48 48 47 46 42 41 37 33 30 26 23 21 18 16 13 12 11 10 11 10 10 9 7 4 4 4 3 5 10 8 7 7 10 15 21 20 14 10 7 3
48 48 46 47 46 46 48 46 44 42 39 37 34 30 27 24 21 19 16 14 11 10 8 9 10 6 4 1 1 4 6 9 12 13 12 16 16 20 23 23 16 13 12
47 47 47 45 43 45 44 43 42 41 40 41 40 37 34 31 28 27 24 21 19 13 12 11 10 7 8 7 14 14 17 19 19 18 21 20 24 23 27 27 28 22 21
50 52 50 50 47 47 48 46 44 40 40 37 35 40 40 37 37 33 31 28 28 27 24 24 22 24 25 23 24 30 30 30 30 30 31 35 34 32 33 32 30 30 27
48 52 54 56 55 52 51 52 51 49 46 44 40 36 37 39 40 38 37 36 35 38 35 36 37 36 36 39 37 34 40 39 38 41 43 44 45 47 41 38 37 38 36
51 56 57 61 62 59 59 58 59 60 56 55 52 46 40 41 41 42 43 44 44 47 45 46 46 47 47 49 47 50 48 50 52 49 52 53 56 56 56 53 50 46 45
49 57 60 63 62 67 70 69 68 68 64 62 60 53 51 49 47 47 43 42 44 48 47 51 54 55 56 57 56 60 62 62 63 63 60 61 64 64 66 64 61 61 58
48 52 56 64 67 71 72 70 72 67 68 65 63 60 57 55 58 58 55 53 51 52 57 55 61 64 65 67 66 60 41 56 70 68 68 68 68 68 65 70 70 69 69
49 59 64 65 68 72 71 66 71 66 64 69 72 67 64 63 62 64 65 63 63 66 67 68 69 73 76 73 76 65 28 35 45 55 52 63 63 63 68 70 75 71 75
34 42 46 66 71 70 69 66 70 74 73 69 64 65 62 59 58 62 62 66 68 67 74 75 72 77 81 88 83 82 85 78 45 38 56 66 64 62 62 64 70 69 78
14 26 33 33 48 64 63 65 66 66 59 50 45 55 57 56 53 53 58 53 59 58 67 62 65 70 89 92 89 73 75 96 92 97 73 78 77 74 77 77 70 63 72
5 6 14 20 25 37 53 57 57 54 52 54 53 53 54 55 55 52 51 51 52 53 60 60 66 63 63 73 91 85 88 77 79 81 89 86 82 90 91 84 82 77 72
Wind_Direction_500mb
159 158 152 155 147 139 130 122 115 110 108 105 87 100 91 89 98 102 98 92 95 108 120 120 130 124 123 116 113 107 108 102 99 100 98 96 94 94 93 90 88 88 91
154 155 144 145 139 130 119 119 117 121 122 103 108 93 79 92 102 97 99 97 91 101 113 126 124 127 120 119 122 119 121 111 104 103 101 98 89 92 94 88 90 99 100
158 155 150 142 146 134 119 118 117 118 114 108 97 84 86 92 100 97 94 99 97 98 105 107 110 110 109 108 118 117 108 107 108 109 99 83 86 91 97 98 101 100 106
161 157 153 146 138 142 118 114 117 122 124 115 109 86 79 91 100 97 99 98 104 93 97 98 100 97 99 99 98 97 96 93 90 81 93 96 89 88 92 90 85 81 85
166 161 157 144 141 127 110 109 112 124 128 129 130 87 80 90 105 106 102 104 105 97 96 91 92 95 92 98 98 94 98 94 93 99 98 91 87 97 99 102 95 95 87
166 164 158 148 143 124 116 111 108 116 139 132 136 111 85 85 99 102 92 101 110 107 97 94 98 99 99 94 96 95 100 99 100 96 93 95 84 85 96 107 102 93 95
169 166 161 155 146 137 129 121 120 120 133 136 150 114 85 80 95 104 98 97 118 108 96 96 97 99 97 107 111 107 107 103 99 103 99 93 83 81 94 118 118 92 84
173 171 167 160 156 146 138 134 133 126 129 140 141 110 82 80 93 105 99 103 114 101 100 102 107 88 100 105 103 108 112 111 94 86 86 81 17 343 87 84 93 104 119
179 178 176 173 170 166 162 157 151 142 138 138 126 108 86 79 87 102 99 101 118 126 126 98 94 84 94 99 96 104 115 112 96 87 75 58 6 33 78 86 107 128 136
182 184 186 184 183 180 175 171 166 153 150 156 144 126 101 94 100 109 101 104 126 131 126 101 94 87 88 93 98 89 105 106 90 74 67 50 84 82 85 115 163 162 132
189 193 194 194 193 191 187 183 179 177 176 176 172 156 141 133 134 141 134 130 135 125 133 132 126 114 105 106 101 84 91 99 79 79 95 60 29 350 173 180 219 141 143
195 197 200 202 201 201 198 196 196 195 193 194 193 189 184 176 163 161 148 141 138 131 141 148 142 130 124 117 90 70 107 47 70 106 88 12 360 10 131 144 135 143 144
202 205 207 209 210 209 208 207 208 207 208 208 208 207 205 198 188 185 181 169 159 154 152 156 155 155 152 134 133 133 108 93 84 91 357 333 338 351 9 83 128 141 136
212 215 216 217 217 216 216 216 218 218 220 221 220 220 221 220 210 205 197 189 178 173 170 171 171 168 151 132 109 114 80 50 121 41 325 320 324 333 339 322 74 120 225
219 222 223 224 225 223 222 223 225 226 227 231 232 232 231 231 224 222 215 208 199 186 182 182 180 165 136 88 79 62 35 16 11 4 318 332 317 324 335 335 330 329 306
222 223 224 225 229 232 230 230 233 234 234 235 236 237 236 235 233 228 227 222 215 196 191 183 180 193 193 167 6 329 330 318 308 305 298 305 292 308 317 315 318 310 308
223 223 222 224 227 230 232 233 233 235 240 242 241 240 239 237 236 233 230 226 220 203 206 207 215 241 237 278 270 257 261 254 259 268 269 267 281 284 292 306 300 298 293
228 229 227 228 228 230 233 235 236 235 236 239 238 238 238 240 237 236 236 234 236 226 228 229 236 248 245 250 257 260 257 260 263 266 270 275 265 268 279 282 291 288 286
234 236 234 235 235 234 236 238 242 244 244 246 244 243 241 241 236 236 241 237 238 243 243 248 248 247 250 256 260 268 270 269 268 271 274 272 274 277 268 271 276 278 279
237 237 237 239 240 239 239 240 243 245 247 248 248 245 245 242 239 236 237 242 242 245 245 246 250 257 261 264 267 270 274 272 269 273 272 268 270 272 272 270 272 269 270
238 239 239 239 239 240 240 239 241 244 247 249 250 248 244 243 242 242 244 248 247 254 259 256 254 255 257 260 264 267 269 270 272 272 268 270 270 270 271 271 271 270 267
245 244 240 239 239 239 241 243 246 249 251 254 256 254 251 245 244 245 243 246 251 252 253 256 258 259 258 257 256 257 264 274 271 271 266 266 270 267 271 270 266 269 269
244 243 241 240 239 238 240 241 244 244 248 250 253 255 252 250 248 248 248 250 252 253 255 258 259 258 260 260 257 250 251 251 268 275 275 265 265 265 266 266 267 266 269
247 240 243 240 239 238 238 235 238 242 243 250 254 256 258 254 253 250 255 255 256 261 261 263 261 263 260 261 258 263 251 253 264 272 270 273 266 269 270 268 270 266 264
243 239 244 249 242 240 240 240 241 243 245 247 247 254 257 262 258 256 256 258 258 267 259 267 273 266 265 263 263 270 271 264 258 260 273 271 272 273 275 278 275 278 269
134 193 222 236 239 235 235 237 238 240 242 244 246 248 258 263 265 264 261 259 262 264 269 272 272 274 274 279 267 264 272 270 272 271 267 279 283 287 283 277 279 274 279
Wind_Speed_850mb
41 37 30 25 21 19 20 19 19 19 20 18 17 18 20 22 22 26 30 31 28 28 26 24 22 22 23 22 26 30 32 35 35 36 38 36 35 33 32 34 35 37 36
44 36 31 23 21 16 17 19 22 19 19 18 18 21 20 24 22 25 31 32 28 31 27 24 22 19 18 21 26 24 22 28 30 31 29 26 27 24 25 27 26 24 30
43 41 34 25 16 14 18 18 20 20 23 21 19 18 19 23 24 26 31 30 32 26 27 24 22 21 22 21 22 15 15 22 25 23 29 28 23 21 22 23 22 21 19
41 35 27 25 19 15 23 22 20 20 24 22 15 14 21 23 25 26 31 31 28 26 29 28 27 26 25 25 25 24 28 32 33 39 30 32 33 26 20 22 21 18 14
41 36 26 25 21 18 21 22 21 22 26 23 14 11 20 24 23 23 26 30 27 28 28 27 28 28 25 26 26 28 32 36 35 33 30 26 24 19 19 21 23 24 25
40 33 30 24 20 20 20 19 19 19 23 23 12 9 19 20 19 18 18 21 25 26 24 24 28 24 27 30 34 35 36 30 29 30 26 24 19 11 12 18 19 14 9
43 35 30 25 21 19 18 17 17 18 20 23 15 7 13 15 16 13 15 19 23 21 24 25 25 24 25 28 31 30 32 28 27 25 20 19 19 14 11 9 8 7 12
43 35 29 25 20 17 16 16 15 15 16 17 12 7 10 12 13 12 12 14 21 19 23 24 21 19 22 24 25 29 28 26 23 21 16 13 8 8 3 6 3 15 17
41 37 33 28 25 21 18 16 16 15 14 12 10 9 9 10 12 10 10 12 17 24 19 15 15 18 20 23 24 21 20 16 16 15 16 13 15 11 6 7 12 14 11
42 39 35 33 30 27 23 21 18 15 12 10 9 7 7 7 8 8 8 10 9 16 14 12 11 15 16 18 15 15 13 9 11 12 12 13 12 11 3 8 7 6 10
45 42 39 36 33 29 26 23 20 18 15 13 11 8 6 5 7 7 9 10 9 12 15 13 11 11 11 10 9 9 10 8 6 9 10 11 10 7 1 8 5 9 10
54 49 43 39 37 34 30 27 24 21 18 16 13 11 9 8 8 8 8 9 8 11 13 13 12 10 9 6 4 4 4 4 7 9 6 9 15 19 4 5 8 10 7
57 53 48 44 41 39 36 33 30 26 23 21 19 15 11 9 8 8 10 10 10 10 10 12 11 9 6 3 2 2 2 4 3 6 6 9 17 19 10 2 8 6 4
58 55 51 48 47 44 41 38 34 31 28 26 22 19 15 12 12 10 11 10 10 10 10 11 10 7 4 3 3 4 5 4 3 4 8 9 17 20 18 3 2 1 3
55 54 50 48 48 47 46 42 41 37 33 30 26 23 21 18 16 13 12 11 10 11 10 10 9 7 4 4 4 3 5 10 8 7 7 10 15 21 20 14 10 7 3
48 48 46 47 46 46 48 46 44 42 39 37 34 30 27 24 21 19 16 14 11 10 8 9 10 6 4 1 1 4 6 9 12 13 12 16 16 20 23 23 16 13 12
47 47 47 45 43 45 44 43 42 41 40 41 40 37 34 31 28 27 24 21 19 13 12 11 10 7 8 7 14 14 17 19 19 18 21 20 24 23 27 27 28 22 21
50 52 50 50 47 47 48 46 44 40 40 37 35 40 40 37 37 33 31 28 28 27 24 24 22 24 25 23 24 30 30 30 30 30 31 35 34 32 33 32 30 30 27
48 52 54 56 55 52 51 52 51 49 46 44 40 36 37 39 40 38 37 36 35 38 35 36 37 36 36 39 37 34 40 39 38 41 43 44 45 47 41 38 37 38 36
51 56 57 61 62 59 59 58 59 60 56 55 52 46 40 41 41 42 43 44 44 47 45 46 46 47 47 49 47 50 48 50 52 49 52 53 56 56 56 53 50 46 45
49 57 60 63 62 67 70 69 68 68 64 62 60 53 51 49 47 47 43 42 44 48 47 51 54 55 56 57 56 60 62 62 63 63 60 61 64 64 66 64 61 61 58
48 52 56 64 67 71 72 70 72 67 68 65 63 60 57 55 58 58 55 53 51 52 57 55 61 64 65 67 66 60 41 56 70 68 68 68 68 68 65 70 70 69 69
49 59 64 65 68 72 71 66 71 66 64 69 72 67 64 63 62 64 65 63 63 66 67 68 69 73 76 73 76 65 28 35 45 55 52 63 63 63 68 70 75 71 75
34 42 46 66 71 70 69 66 70 74 73 69 64 65 62 59 58 62 62 66 68 67 74 75 72 77 81 88 83 82 85 78 45 38 56 66 64 62 62 64 70 69 78
14 26 33 33 48 64 63 65 66 66 59 50 45 55 57 56 53 53 58 53 59 58 67 62 65 70 89 92 89 73 75 96 92 97 73 78 77 74 77 77 70 63 72
5 6 14 20 25 37 53 57 57 54 52 54 53 53 54 55 55 52 51 51 52 53 60 60 66 63 63 73 91 85 88 77 79 81 89 86 82 90 91 84 82 77 72
Wind_Direction_850mb
159 158 152 155 147 139 130 122 115 110 108 105 87 100 91 89 98 102 98 92 95 108 120 120 130 124 123 116 113 107 108 102 99 100 98 96 94 94 93 90 88 88 91
154 155 144 145 139 130 119 119 117 121 122 103 108 93 79 92 102 97 99 97 91 101 113 126 124 127 120 119 122 119 121 111 104 103 101 98 89 92 94 88 90 99 100
158 155 150 142 146 134 119 118 117 118 114 108 97 84 86 92 100 97 94 99 97 98 105 107 110 110 109 108 118 117 108 107 108 109 99 83 86 91 97 98 101 100 106
161 157 153 146 138 142 118 114 117 122 124 115 109 86 79 91 100 97 99 98 104 93 97 98 100 97 99 99 98 97 96 93 90 81 93 96 89 88 92 90 85 81 85
166 161 157 144 141 127 110 109 112 124 128 129 130 87 80 90 105 106 102 104 105 97 96 91 92 95 92 98 98 94 98 94 93 99 98 91 87 97 99 102 95 95 87
166 164 158 148 143 124 116 111 108 116 139 132 136 111 85 85 99 102 92 101 110 107 97 94 98 99 99 94 96 95 100 99 100 96 93 95 84 85 96 107 102 93 95
169 166 161 155 146 137 129 121 120 120 133 136 150 114 85 80 95 104 98 97 118 108 96 96 97 99 97 107 111 107 107 103 99 103 99 93 83 81 94 118 118 92 84
173 171 167 160 156 146 138 134 133 126 129 140 141 110 82 80 93 105 99 103 114 101 100 102 107 88 100 105 103 108 112 111 94 86 86 81 17 343 87 84 93 104 119
179 178 176 173 170 166 162 157 151 142 138 138 126 108 86 79 87 102 99 101 118 126 126 98 94 84 94 99 96 104 115 112 96 87 75 58 6 33 78 86 107 128 136
182 184 186 184 183 180 175 171 166 153 150 156 144 126 101 94 100 109 101 104 126 131 126 101 94 87 88 93 98 89 105 106 90 74 67 50 84 82 85 115 163 162 132
189 193 194 194 193 191 187 183 179 177 176 176 172 156 141 133 134 141 134 130 135 125 133 132 126 114 105 106 101 84 91 99 79 79 95 60 29 350 173 180 219 141 143
195 197 200 202 201 201 198 196 196 195 193 194 193 189 184 176 163 161 148 141 138 131 141 148 142 130 124 117 90 70 107 47 70 106 88 12 360 10 131 144 135 143 144
202 205 207 209 210 209 208 207 208 207 208 208 208 207 205 198 188 185 181 169 159 154 152 156 155 155 152 134 133 133 108 93 84 91 357 333 338 351 9 83 128 141 136
212 215 216 217 217 216 216 216 218 218 220 221 220 220 221 220 210 205 197 189 178 173 170 171 171 168 151 132 109 114 80 50 121 41 325 320 324 333 339 322 74 120 225
219 222 223 224 225 223 222 223 225 226 227 231 232 232 231 231 224 222 215 208 199 186 182 182 180 165 136 88 79 62 35 16 11 4 318 332 317 324 335 335 330 329 306
222 223 224 225 229 232 230 230 233 234 234 235 236 237 236 235 233 228 227 222 215 196 191 183 180 193 193 167 6 329 330 318 308 305 298 305 292 308 317 315 318 310 308
223 223 222 224 227 230 232 233 233 235 240 242 241 240 239 237 236 233 230 226 220 203 206 207 215 241 237 278 270 257 261 254 259 268 269 267 281 284 292 306 300 298 293
228 229 227 228 228 230 233 235 236 235 236 239 238 238 238 240 237 236 236 234 236 226 228 229 236 248 245 250 257 260 257 260 263 266 270 275 265 268 279 282 291 288 286
234 236 234 235 235 234 236 238 242 244 244 246 244 243 241 241 236 236 241 237 238 243 243 248 248 247 250 256 260 268 270 269 268 271 274 272 274 277 268 271 276 278 279
237 237 237 239 240 239 239 240 243 245 247 248 248 245 245 242 239 236 237 242 242 245 245 246 250 257 261 264 267 270 274 272 269 273 272 268 270 272 272 270 272 269 270
238 239 239 239 239 240 240 239 241 244 247 249 250 248 244 243 242 242 244 248 247 254 259 256 254 255 257 260 264 267 269 270 272 272 268 270 270 270 271 271 271 270 267
245 244 240 239 239 239 241 243 246 249 251 254 256 254 251 245 244 245 243 246 251 252 253 256 258 259 258 257 256 257 264 274 271 271 266 266 270 267 271 270 266 269 269
244 243 241 240 239 238 240 241 244 244 248 250 253 255 252 250 248 248 248 250 252 253 255 258 259 258 260 260 257 250 251 251 268 275 275 265 265 265 266 266 267 266 269
247 240 243 240 239 238 238 235 238 242 243 250 254 256 258 254 253 250 255 255 256 261 261 263 261 263 260 261 258 263 251 253 264 272 270 273 266 269 270 268 270 266 264
243 239 244 249 242 240 240 240 241 243 245 247 247 254 257 262 258 256 256 258 258 267 259 267 273 266 265 263 263 270 271 264 258 260 273 271 272 273 275 278 275 278 269
134 193 222 236 239 235 235 237 238 240 242 244 246 248 258 263 265 264 261 259 262 264 269 272 272 274 274 279 267 264 272 270 272 271 267 279 283 287 283 277 279 274 279